Back to catalog

ORS 5 SENSORSAT

AliveMilitaryVLEO
NORAD 42921·PAYLOAD·🇺🇸 United States

Launched Aug 26, 2017 from Cape Canaveral Space Force Station

Loading…

Next Passes (next 24 hours)

TLE

FreshSource: Space-Track

Epoch: Sep 13, 2026, 16:25 UTC

1 42921U 17050A   26256.68432741  .00002297  00000-0  11076-3 0  9995
2 42921   0.0476 206.2784 0010390 302.7851 210.9977 15.01148444494346

Track ORS 5 SENSORSAT in real time with AllMySat

Download on the App Store